Location: Taaricht
(32.5378°N, 5.4251°W)
Time: 13:53:35
(UTC+00:00)

CZ-2C R/B - Pass Details

Date: 09 April 2020
Orbit: 785 x 870 km, 98.3° (Epoch: 04 June)

Event Time Altitude Azimuth Distance (km) Brightness Sun altitude
Rises 19:22:03 0° 35° (NE) 3,283 5.6 -7.9°
Reaches altitude 10° 19:25:21 10° 57° (ENE) 2,357 4.6 -8.6°
Maximum altitude 19:28:24 16° 94° (E) 1,991 4.0 -9.2°
Drops below altitude 10° 19:31:29 10° 130° (SE) 2,371 4.5 -9.8°
Enters shadow 19:31:57 - 134° (SE) 2,479 4.6 -9.9°
